Location: Newark
(53.4716°N, 2.0338°W)
Time: 15:53:51
(UTC+00:00)

Envisat - Visible Passes

Search period start: 15 September 2019 00:00
Search period end: 25 September 2019 00:00
Orbit: 764 x 766 km, 98.1° (Epoch: 15 September)

Date Brightness Start Highest point End Pass type
(mag) Time Alt. Az. Time Alt. Az. Time Alt. Az.
15 Sep 5.4 19:13:18 10° SSW 19:17:35 27° W 19:21:53 10° NW visible
17 Sep 5.9 19:40:05 10° SW 19:43:24 17° W 19:46:45 10° NW visible
18 Sep 5.0 19:01:41 10° SSW 19:06:13 32° W 19:10:48 10° NNW visible
19 Sep 6.4 20:08:18 10° W 20:09:21 11° W 20:10:23 10° WNW visible
20 Sep 5.8 19:28:13 10° SW 19:32:00 21° W 19:35:49 10° NW visible
21 Sep 4.7 18:50:08 10° SSW 18:54:52 39° W 18:59:39 10° NNW visible
22 Sep 6.1 19:55:32 10° WSW 19:57:54 13° W 20:00:16 10° NW visible
23 Sep 5.5 19:16:28 10° SW 19:20:37 25° W 19:24:48 10° NW visible
24 Sep 4.2 18:38:40 10° S 18:43:33 47° W 18:48:28 10° NNW visible
